Regional Weather Roundup
Issued by NWS

Home | Current Version | Previous Version | Graphics & Text | Print | Product List | Glossary On
Versions: 1 2 3 4 5 6 7 8 9 10 11 12 13 14 15 16 17 18 19 20 21 22 23 24 25 26 27 28 29 30 31 32 33 34 35 36 37 38 39 40 41 42 43 44 45 46 47 48 49 50
000
ASUS43 KBIS 280120
RWRND

NORTH DAKOTA REGIONAL WEATHER ROUNDUP
NATIONAL WEATHER SERVICE BISMARCK ND
700 PM CST TUE JAN 27 2015

NOTE: "FAIR" INDICATES FEW OR NO CLOUDS BELOW 12,000 FEET WITH NO
SIGNIFICANT WEATHER AND/OR OBSTRUCTIONS TO VISIBILITY.


NDZ001>003-009>011-017-280200-
NORTHWEST NORTH DAKOTA

CITY           SKY/WX    TMP DP  RH WIND       PRES   REMARKS
WILLISTON      MOCLDY    36  32  85 CALM      29.78F
MINOT          CLOUDY    38  33  82 W6        29.77F
MINOT AFB      CLOUDY    34  34 100 W3        29.77F
$$

NDZ018>021-031>035-040>046-280200-
SOUTHWEST NORTH DAKOTA

CITY           SKY/WX    TMP DP  RH WIND       PRES   REMARKS
BISMARCK       MOCLDY    39  32  76 E5        29.81F
DICKINSON      MOCLDY    43  33  68 W5        29.78F
GARRISON         N/A     38  34  85 CALM      29.78F
HETTINGER ARPT PTCLDY    41  31  67 CALM      29.83S
$$

NDZ004>008-012>016-024-026-027-054-280200-
NORTHEAST NORTH DAKOTA

CITY           SKY/WX    TMP DP  RH WIND       PRES   REMARKS
GRAND FORKS    CLOUDY    32  30  92 S14G22    29.93F
GRND FRKS AFB  CLOUDY    31  29  92 S17G25    29.92F WCI  20
DEVILS LAKE    CLOUDY    34  32  93 S9        29.83S
$$

NDZ022-023-025-028>030-036>039-047>053-280200-
SOUTHEAST NORTH DAKOTA

CITY           SKY/WX    TMP DP  RH WIND       PRES   REMARKS
FARGO          CLOUDY    33  29  85 S18G25    29.96S
JAMESTOWN      FOG       32  31  96 SE9       29.85F VSB 1/4
$$




USA.gov is the U.S. government's official web portal to all federal, state and local government web resources and services.